Weather History for KO54 - April, 2013

Change the Weather History Date:

Monday, April 15, 2013

  Actual Average (KRDD) Record (KRDD)
Temperature  
Mean Temperature 39 °F -  
Max Temperature 48 °F 70 °F 87 °F (1994)
Min Temperature 30 °F 46 °F 31 °F (2009)
Degree Days  
Heating Degree Days 26    
Cooling Degree Days 0    
Moisture  
Dew Point 28 °F    
Average Humidity 66    
Maximum Humidity 87    
Minimum Humidity 37    
Precipitation  
Precipitation 0.00 in 0.08 in 0.52 in (2006)
Month to date precipitation 1.28  
Year to date precipitation 17.12  
Sea Level Pressure  
Sea Level Pressure 29.89 in    
Wind  
Wind Speed 6 mph (West)    
Max Wind Speed 15 mph    
Max Gust Speed 29 mph    
Visibility 10 miles    
Events      
T = Trace of Precipitation, MM = Missing Value Source: NWS Daily Summary

Daily Weather History Graph

Daily Weather History Graph

Search for Another Location

Airport or City:

Trip Planner

Search our weather history database for the weather conditions in past years. The results will help you decide how hot, cold, wet, or windy it might be!

Date:

Astronomy

Apr. 15, 2013 Rise Set
Actual Time 6:32 AM PDT 7:51 PM PDT
Civil Twilight 6:03 AM PDT 8:20 PM PDT
Nautical Twilight 5:29 AM PDT 8:54 PM PDT
Astronomical Twilight 4:54 AM PDT 9:30 PM PDT
Moon 10:02 AM PDT (4/15) 12:09 AM PDT (4/15)
Length of Visible Light 14h 16m
Length of Day
13h 19m
Waxing Crescent, 25% of the Moon is Illuminated
Apr 15
Waxing Crescent
Apr 18
First Quarter
Apr 25
Full
May 2
Last Quarter
May 9
New

Hourly Weather History & Observations

Time (PDT) Temp. Windchill Dew Point Humidity Pressure Visibility Wind Dir Wind Speed Gust Speed Precip Events Conditions
12:15 AM 39.2 °F 33.0 °F 32.0 °F 75% 29.84 in 10.0 mi SW 9.2 mph - N/A   Clear
12:35 AM 39.2 °F 33.0 °F 30.2 °F 70% 29.84 in 10.0 mi SW 9.2 mph - N/A   Scattered Clouds
12:55 AM 39.2 °F 33.0 °F 30.2 °F 70% 29.85 in 10.0 mi SW 9.2 mph - N/A   Mostly Cloudy
1:15 AM 39.2 °F 33.6 °F 30.2 °F 70% 29.85 in 10.0 mi SSW 8.1 mph - N/A   Overcast
1:35 AM 35.6 °F 32.8 °F 30.2 °F 81% 29.85 in 10.0 mi NNW 3.5 mph - N/A   Mostly Cloudy
1:55 AM 33.8 °F 30.8 °F 28.4 °F 81% 29.86 in 10.0 mi NNE 3.5 mph - N/A   Partly Cloudy
2:15 AM 32.0 °F 27.5 °F 28.4 °F 87% 29.86 in 10.0 mi North 4.6 mph - N/A   Partly Cloudy
2:35 AM 32.0 °F 28.7 °F 28.4 °F 87% 29.86 in 10.0 mi NE 3.5 mph - N/A   Mostly Cloudy
2:55 AM 33.8 °F - 28.4 °F 81% 29.86 in 10.0 mi Calm Calm - N/A   Overcast
3:15 AM 32.0 °F 28.7 °F 28.4 °F 87% 29.86 in 10.0 mi NNE 3.5 mph - N/A   Overcast
3:35 AM 32.0 °F 28.7 °F 28.4 °F 87% 29.86 in 10.0 mi North 3.5 mph - N/A   Overcast
3:55 AM 32.0 °F - 28.4 °F 87% 29.86 in 10.0 mi Calm Calm - N/A   Mostly Cloudy
4:15 AM 32.0 °F - 28.4 °F 87% 29.86 in 10.0 mi Calm Calm - N/A   Mostly Cloudy
4:35 AM 32.0 °F 28.7 °F 28.4 °F 87% 29.86 in 10.0 mi NE 3.5 mph - N/A   Mostly Cloudy
4:55 AM 32.0 °F 28.7 °F 28.4 °F 87% 29.86 in 10.0 mi North 3.5 mph - N/A   Mostly Cloudy
5:15 AM 32.0 °F - 26.6 °F 80% 29.86 in 10.0 mi Calm Calm - N/A   Mostly Cloudy
5:35 AM 30.2 °F - 26.6 °F 86% 29.86 in 10.0 mi Calm Calm - N/A   Scattered Clouds
5:55 AM 30.2 °F - 26.6 °F 86% 29.86 in 10.0 mi Calm Calm - N/A   Mostly Cloudy
6:15 AM 30.2 °F 26.7 °F 26.6 °F 86% 29.86 in 10.0 mi NNW 3.5 mph - N/A   Mostly Cloudy
6:35 AM 30.2 °F 26.7 °F 26.6 °F 86% 29.87 in 10.0 mi NNE 3.5 mph - N/A   Partly Cloudy
6:55 AM 30.2 °F - 26.6 °F 86% 29.87 in 10.0 mi Calm Calm - N/A   Clear
7:15 AM 30.2 °F - 26.6 °F 86% 29.88 in 10.0 mi Calm Calm - N/A   Clear
7:35 AM 32.0 °F - 28.4 °F 87% 29.88 in 10.0 mi Calm Calm - N/A   Clear
7:55 AM 35.6 °F - 28.4 °F 75% 29.88 in 10.0 mi Calm Calm - N/A   Clear
8:15 AM 37.4 °F 29.3 °F 28.4 °F 70% 29.89 in 10.0 mi SW 12.7 mph 18.4 mph N/A   Clear
8:35 AM 39.2 °F 32.5 °F 28.4 °F 65% 29.89 in 10.0 mi SSW 10.4 mph 19.6 mph N/A   Clear
8:55 AM 41.0 °F 36.4 °F 28.4 °F 61% 29.88 in 10.0 mi SW 6.9 mph 17.3 mph N/A   Clear
9:15 AM 42.8 °F 38.0 °F 28.4 °F 57% 29.88 in 10.0 mi SW 8.1 mph 18.4 mph N/A   Scattered Clouds
9:35 AM 42.8 °F 38.6 °F 26.6 °F 53% 29.88 in 10.0 mi WSW 6.9 mph 18.4 mph N/A   Mostly Cloudy
9:55 AM 44.6 °F 39.2 °F 26.6 °F 49% 29.87 in 10.0 mi West 10.4 mph 19.6 mph N/A   Mostly Cloudy
10:15 AM 44.6 °F 39.7 °F 26.6 °F 49% 29.88 in 10.0 mi SW 9.2 mph 20.7 mph N/A   Mostly Cloudy
10:35 AM 44.6 °F 41.4 °F 24.8 °F 46% 29.88 in 10.0 mi WSW 5.8 mph 18.4 mph N/A   Overcast
10:55 AM 46.4 °F 41.1 °F 24.8 °F 43% 29.87 in 10.0 mi West 11.5 mph 18.4 mph N/A   Mostly Cloudy
11:15 AM 46.4 °F 41.1 °F 24.8 °F 43% 29.87 in 10.0 mi WSW 11.5 mph 21.9 mph N/A   Mostly Cloudy
11:35 AM 46.4 °F 41.1 °F 24.8 °F 43% 29.87 in 10.0 mi SW 11.5 mph 21.9 mph N/A   Mostly Cloudy
11:55 AM 46.4 °F 41.5 °F 24.8 °F 43% 29.87 in 10.0 mi WSW 10.4 mph 20.7 mph N/A   Mostly Cloudy
12:15 PM 48.2 °F - 24.8 °F 40% 29.87 in 10.0 mi WSW 6.9 mph - N/A   Scattered Clouds
12:35 PM 48.2 °F - 23.0 °F 37% 29.86 in 10.0 mi NNW 11.5 mph 19.6 mph N/A   Scattered Clouds
12:55 PM 46.4 °F 41.5 °F 26.6 °F 46% 29.86 in 10.0 mi West 10.4 mph 24.2 mph N/A   Scattered Clouds
1:15 PM 46.4 °F 42.4 °F 23.0 °F 40% 29.85 in 10.0 mi West 8.1 mph 24.2 mph N/A   Scattered Clouds
1:35 PM 48.2 °F - 23.0 °F 37% 29.85 in 10.0 mi West 11.5 mph 18.4 mph N/A   Scattered Clouds
1:55 PM 48.2 °F - 28.4 °F 46% 29.84 in 10.0 mi West 10.4 mph 28.8 mph N/A   Mostly Cloudy
2:15 PM 46.4 °F 40.7 °F 26.6 °F 46% 29.85 in 10.0 mi SW 12.7 mph 26.5 mph N/A   Scattered Clouds
2:35 PM 46.4 °F 40.7 °F 26.6 °F 46% 29.87 in 10.0 mi WNW 12.7 mph 23.0 mph N/A   Partly Cloudy
2:55 PM 46.4 °F 41.1 °F 28.4 °F 50% 29.88 in 10.0 mi NNW 11.5 mph 21.9 mph N/A   Partly Cloudy
3:15 PM 46.4 °F 40.1 °F 28.4 °F 50% 29.89 in 10.0 mi West 15.0 mph 21.9 mph N/A   Scattered Clouds
3:35 PM 44.6 °F 40.7 °F 28.4 °F 53% 29.88 in 10.0 mi WSW 6.9 mph 24.2 mph N/A   Scattered Clouds
3:55 PM 44.6 °F 40.7 °F 28.4 °F 53% 29.88 in 10.0 mi West 6.9 mph 20.7 mph N/A   Partly Cloudy
4:15 PM 44.6 °F 43.1 °F 28.4 °F 53% 29.87 in 10.0 mi SSE 3.5 mph 25.3 mph N/A   Scattered Clouds
4:35 PM 46.4 °F 41.5 °F 28.4 °F 50% 29.88 in 10.0 mi WSW 10.4 mph 19.6 mph N/A   Mostly Cloudy
4:55 PM 46.4 °F 41.9 °F 26.6 °F 46% 29.89 in 10.0 mi West 9.2 mph 18.4 mph N/A   Mostly Cloudy
5:15 PM 44.6 °F 38.8 °F 28.4 °F 53% 29.89 in 10.0 mi WSW 11.5 mph 19.6 mph N/A   Mostly Cloudy
5:35 PM 44.6 °F 39.7 °F 28.4 °F 53% 29.89 in 10.0 mi SW 9.2 mph 18.4 mph N/A   Partly Cloudy
5:55 PM 44.6 °F 39.7 °F 28.4 °F 53% 29.90 in 10.0 mi West 9.2 mph - N/A   Clear
6:15 PM 42.8 °F 38.0 °F 28.4 °F 57% 29.90 in 10.0 mi WSW 8.1 mph 20.7 mph N/A   Clear
6:35 PM 42.8 °F 40.1 °F 28.4 °F 57% 29.90 in 10.0 mi WNW 4.6 mph 17.3 mph N/A   Clear
6:55 PM 42.8 °F 41.1 °F 28.4 °F 57% 29.91 in 10.0 mi SW 3.5 mph - N/A   Mostly Cloudy
7:15 PM 41.0 °F 38.0 °F 28.4 °F 61% 29.92 in 10.0 mi WSW 4.6 mph - N/A   Mostly Cloudy
7:35 PM 41.0 °F - 28.4 °F 61% 29.93 in 10.0 mi Calm Calm - N/A   Partly Cloudy
7:55 PM 39.2 °F 37.0 °F 28.4 °F 65% 29.93 in 10.0 mi West 3.5 mph - N/A   Partly Cloudy
8:15 PM 39.2 °F 35.0 °F 28.4 °F 65% 29.94 in 10.0 mi WSW 5.8 mph - N/A   Partly Cloudy
8:35 PM 39.2 °F - 28.4 °F 65% 29.96 in 10.0 mi Calm Calm - N/A   Partly Cloudy
8:55 PM 39.2 °F 33.6 °F 28.4 °F 65% 29.96 in 10.0 mi SW 8.1 mph - N/A   Partly Cloudy
9:15 PM 37.4 °F - 28.4 °F 70% 29.97 in 10.0 mi Calm Calm - N/A   Scattered Clouds
9:35 PM 35.6 °F - 28.4 °F 75% 29.98 in 10.0 mi Calm Calm - N/A   Scattered Clouds
9:55 PM 33.8 °F 30.8 °F 28.4 °F 81% 29.99 in 10.0 mi NNE 3.5 mph - N/A   Scattered Clouds
10:15 PM 32.0 °F - 28.4 °F 87% 30.00 in 10.0 mi Calm Calm - N/A   Partly Cloudy
10:35 PM 32.0 °F - 26.6 °F 80% 30.00 in 10.0 mi Calm Calm - N/A   Partly Cloudy
10:55 PM 32.0 °F 27.5 °F 26.6 °F 80% 30.01 in 10.0 mi North 4.6 mph - N/A   Scattered Clouds
11:15 PM 32.0 °F - 26.6 °F 80% 30.02 in 10.0 mi Calm Calm - N/A   Partly Cloudy
11:35 PM 32.0 °F 28.7 °F 26.6 °F 80% 30.03 in 10.0 mi NNE 3.5 mph - N/A   Partly Cloudy
11:55 PM 30.2 °F - 26.6 °F 86% 30.03 in 10.0 mi Calm Calm - N/A   Partly Cloudy